Temperature
21 20 20 20 20 21 21 21 21 21 20 20 20 20 20 20 20 19 19 19 19 19 19 19 18 18 18 18 18 18 18 18 18 18 18 17 17 17 17 17 17 17 17
22 21 20 20 20 21 21 21 21 21 21 20 20 20 20 20 20 20 19 19 19 19 19 19 19 19 19 19 19 19 19 18 18 18 18 17 17 17 17 17 17 17 17
22 21 20 20 20 21 21 21 21 21 21 21 20 20 20 20 20 20 20 19 19 19 19 19 19 19 19 19 19 19 19 18 18 18 18 17 17 17 17 17 17 17 17
22 21 21 20 20 20 21 21 21 21 21 21 20 20 20 20 20 20 20 20 19 19 19 19 19 19 19 19 19 19 18 18 18 18 18 17 17 17 18 17 17 17 17
22 21 21 20 20 20 20 20 20 20 20 20 20 20 20 20 20 20 20 19 19 19 19 19 19 19 19 19 19 19 18 18 18 18 18 17 17 18 18 18 18 17 17
22 21 21 21 20 20 20 20 20 20 20 20 20 20 20 20 20 20 20 19 19 19 19 19 19 19 19 19 19 18 18 18 18 18 18 17 17 18 18 18 18 18 18
22 21 21 21 20 20 20 20 20 20 20 20 20 20 20 20 20 20 19 19 19 19 19 19 19 19 19 19 19 18 18 18 18 18 18 17 17 17 18 18 18 18 18
22 21 21 21 20 20 20 20 20 20 20 20 20 20 20 20 20 19 19 19 19 19 19 19 19 19 19 19 19 18 18 18 18 18 17 17 17 17 17 18 18 18 18
21 21 21 20 20 20 20 20 20 20 20 20 20 19 19 19 19 19 19 19 19 19 19 19 19 19 19 19 18 18 18 18 18 18 18 17 17 17 17 17 17 18 18
21 21 21 20 20 20 20 20 20 20 19 19 19 19 19 19 19 19 19 19 19 19 19 19 19 19 18 18 18 18 18 18 18 18 18 18 17 17 17 17 17 17 18
20 21 21 21 20 20 20 20 19 19 19 19 19 19 19 19 19 19 19 19 18 18 19 19 18 18 18 18 18 18 18 18 18 18 18 18 17 17 17 17 17 17 17
21 21 21 21 20 20 20 20 20 19 19 19 19 19 18 18 18 18 18 18 18 18 18 18 18 18 18 18 18 18 18 18 18 18 18 18 18 17 17 17 17 17 17
21 21 21 20 20 20 20 20 19 19 19 19 19 19 18 18 18 18 18 18 18 18 18 18 17 18 18 18 18 18 18 18 18 18 18 18 18 18 17 17 17 17 17
21 21 20 20 20 20 19 19 19 19 19 19 18 18 18 18 18 18 18 18 18 18 17 17 17 17 17 17 17 17 17 17 18 18 17 17 17 17 17 17 17 17 17
20 20 20 20 19 19 19 19 18 18 18 18 18 18 18 18 18 18 17 17 17 17 17 17 17 17 17 17 17 17 17 17 17 17 17 17 17 17 17 17 17 17 17
20 20 20 19 19 18 18 18 18 18 18 18 18 18 18 17 17 17 17 17 17 17 17 17 17 17 17 17 17 17 16 17 17 17 17 17 17 17 17 17 17 17 17
20 19 19 19 19 18 18 18 18 18 18 17 17 17 17 17 17 17 17 17 17 17 16 16 16 16 16 16 16 16 16 16 17 17 17 17 17 17 17 17 17 17 17
19 19 19 19 18 18 18 18 18 17 17 17 17 17 17 17 16 16 16 16 16 16 16 16 16 16 16 16 16 16 16 16 16 17 17 17 17 17 17 17 17 17 17
19 19 19 18 18 18 18 17 17 17 17 17 17 17 17 16 16 16 16 16 16 16 16 16 16 16 16 16 15 16 16 16 16 16 16 17 17 17 17 17 17 17 17
19 19 18 18 18 18 18 17 17 17 17 17 17 17 17 16 16 16 16 16 16 15 15 15 15 15 15 15 15 15 16 16 16 16 16 16 17 17 17 17 17 17 17
18 18 18 18 18 18 18 17 17 17 17 17 17 16 16 16 16 15 15 15 15 15 15 15 15 15 15 15 15 15 15 16 16 16 16 16 16 17 17 17 17 17 17
18 18 18 18 18 18 18 17 17 17 17 16 16 16 16 15 15 15 15 15 14 14 14 14 14 14 14 14 14 14 14 15 16 16 16 16 16 16 17 17 17 17 17
18 18 18 18 18 18 17 17 17 16 16 16 16 15 15 15 15 14 14 14 14 14 14 14 13 13 13 14 14 13 14 14 15 16 16 16 16 16 16 16 16 17 17
18 18 18 18 18 17 17 17 16 16 16 15 15 15 14 14 14 14 14 13 13 13 13 13 13 13 13 13 13 13 13 13 14 15 15 16 16 16 16 16 16 17 17
18 18 18 17 17 17 16 16 16 15 15 15 14 14 14 13 13 13 13 13 13 13 13 13 13 13 13 13 13 13 13 13 13 14 14 15 15 16 16 16 16 16 17
18 18 17 17 17 16 16 15 15 15 14 14 14 13 13 13 13 12 12 12 12 12 12 12 12 12 12 12 12 13 13 13 13 13 14 14 15 15 16 16 16 16 17
Wind_Speed
8 12 21 21 21 21 21 21 21 21 21 21 21 21 21 20 19 18 16 15 14 12 11 10 9 10 11 11 12 13 13 14 14 14 15 15 15 15 16 16 16 16 19
14 17 22 22 22 21 21 21 20 21 21 20 20 20 20 19 18 17 16 15 13 12 11 10 10 10 11 11 12 13 14 14 14 14 15 14 15 15 15 16 15 15 18
16 17 21 22 21 21 20 20 20 20 20 19 19 19 19 18 17 16 15 14 13 12 11 10 10 10 10 11 11 12 13 13 13 14 13 12 13 14 15 15 16 17 17
16 16 19 22 21 20 20 19 19 19 18 18 18 18 17 17 16 15 14 13 13 12 11 10 10 10 10 11 11 11 12 12 12 12 10 10 10 13 14 15 16 16 16
13 15 19 22 21 20 19 18 18 17 17 17 17 16 16 15 15 14 13 12 12 11 11 10 10 10 10 10 10 11 11 11 11 9 7 7 8 13 14 15 15 16 16
12 14 19 22 20 19 18 17 17 16 16 15 15 15 14 14 13 13 12 11 11 10 10 10 9 10 10 10 10 10 10 10 9 7 6 6 8 13 15 15 15 15 15
13 12 17 21 20 19 18 17 16 15 15 14 14 14 13 13 12 12 11 11 10 10 9 9 9 9 9 9 9 9 9 9 7 6 6 6 9 13 14 15 15 15 15
13 11 15 20 19 18 17 16 15 15 14 14 13 13 12 12 11 11 11 10 10 10 10 9 9 9 9 9 9 9 8 8 6 6 6 7 11 13 14 15 15 16 16
10 8 10 15 16 17 16 16 15 14 13 13 12 12 12 11 11 11 11 11 10 10 10 10 10 10 10 9 9 9 9 8 6 5 6 8 12 14 15 15 16 16 16
9 7 6 10 12 12 13 15 14 13 13 12 12 12 12 11 11 11 11 11 11 11 11 11 11 11 11 10 10 10 10 9 6 6 6 9 13 15 16 16 17 17 17
9 6 6 6 7 8 9 11 12 12 12 11 11 12 11 10 9 10 11 12 12 12 12 12 12 12 12 12 12 12 11 8 7 7 7 10 13 16 17 18 18 18 18
11 8 6 6 5 6 7 7 7 7 7 8 7 7 7 7 8 8 9 12 13 13 13 13 13 14 13 11 12 13 10 9 9 8 9 12 14 16 18 20 20 20 20
9 8 7 6 5 5 3 3 4 4 5 6 7 7 6 6 6 7 7 8 10 11 11 12 13 13 12 11 10 11 11 11 10 10 11 14 16 17 19 21 22 22 22
7 6 5 6 5 4 2 2 3 3 3 5 7 8 7 5 5 5 6 7 7 7 7 8 8 11 12 13 12 12 12 11 11 11 13 16 18 19 21 22 23 24 24
5 5 5 5 5 4 3 1 1 2 2 4 5 7 8 5 4 4 4 5 6 7 6 6 7 8 9 10 12 12 12 14 14 13 13 17 19 20 21 23 24 25 26
5 5 5 5 5 4 3 2 1 2 3 4 4 4 5 5 4 3 3 3 5 6 6 6 6 6 7 7 9 11 12 14 14 15 15 16 20 21 22 23 25 26 26
6 5 6 6 5 5 4 3 2 2 1 1 1 1 1 2 2 2 2 2 3 5 6 5 6 5 6 7 9 10 10 13 13 15 16 15 16 19 22 24 24 26 28
6 6 6 6 6 5 4 2 1 2 1 1 1 1 1 0 0 0 1 2 3 3 3 3 4 4 5 6 7 8 8 9 12 14 15 15 15 15 18 22 24 27 28
6 7 7 7 6 6 5 3 3 3 2 1 1 1 1 0 0 0 1 2 3 2 2 3 3 3 5 6 7 8 8 9 10 12 13 15 16 16 16 18 22 26 28
5 6 6 6 6 6 5 4 3 2 1 1 0 0 0 1 0 0 1 2 2 2 2 3 4 4 4 6 7 8 8 9 9 10 12 12 14 17 17 17 18 21 27
4 5 5 5 4 4 3 3 2 1 0 0 1 1 1 2 2 1 1 2 1 2 3 3 3 4 4 3 4 5 6 8 10 10 10 10 11 14 16 17 17 16 18
3 4 4 5 4 4 3 2 2 2 1 1 1 2 2 3 3 2 2 3 2 2 3 3 2 2 3 2 2 3 3 4 5 8 9 10 11 9 11 16 16 17 17
4 4 4 4 3 3 2 2 2 2 2 1 2 2 3 4 4 3 3 3 3 3 3 4 3 3 3 3 3 3 2 3 3 3 6 8 8 8 10 10 14 17 18
5 4 3 2 1 1 2 2 2 2 2 3 2 3 4 5 5 5 4 4 4 3 4 4 3 3 3 3 3 4 4 3 3 3 2 4 6 8 9 10 11 14 17
4 3 2 1 1 0 1 1 1 1 2 2 2 4 5 5 5 6 5 4 4 4 5 5 4 3 3 3 3 2 3 4 5 4 4 3 3 5 7 8 9 9 14
3 3 3 2 2 1 1 1 2 3 4 4 4 4 5 4 5 6 5 4 5 4 5 5 5 4 4 4 3 3 2 3 3 4 5 4 3 3 4 5 7 7 10
Wind_Direction
155 157 155 150 144 139 135 132 130 129 128 129 131 135 140 144 145 147 149 149 147 146 141 133 125 122 123 122 120 119 120 121 122 123 124 122 122 121 120 119 118 118 119
148 156 156 152 146 142 139 136 135 133 133 133 135 138 141 144 146 148 150 150 150 149 144 138 131 129 127 125 124 125 126 127 128 128 127 125 125 124 122 121 121 124 123
145 154 155 152 148 144 142 140 139 138 138 138 140 141 144 146 149 151 152 153 154 152 149 145 140 135 132 131 130 132 133 134 134 131 126 126 129 129 127 128 128 127 126
145 150 153 153 150 147 145 144 143 143 143 144 145 147 149 150 152 154 155 157 157 157 155 151 148 144 141 139 139 139 140 139 136 129 124 132 137 138 136 135 133 132 131
141 146 156 155 152 150 148 148 147 147 148 149 150 152 154 156 157 158 159 161 161 161 160 159 156 153 150 148 147 146 146 145 139 132 128 129 139 147 144 142 140 138 137
139 145 158 156 155 153 153 152 153 153 154 155 156 158 160 162 164 164 166 168 168 168 168 167 165 162 161 159 158 156 155 155 141 137 139 138 146 153 152 149 147 145 143
141 146 159 159 159 158 158 158 159 159 161 163 164 166 168 171 173 174 176 178 178 179 180 179 178 176 174 173 173 172 170 167 147 150 157 163 169 166 161 159 155 152 151
144 144 157 161 162 162 163 164 166 168 170 172 174 176 179 181 183 184 187 190 191 192 192 192 193 192 191 189 188 189 188 185 171 175 183 185 186 180 174 169 165 162 159
136 135 146 158 164 167 169 170 173 176 179 182 184 186 189 191 194 196 199 201 202 206 208 206 207 207 207 205 204 205 206 206 182 188 200 195 193 190 187 180 176 172 169
133 135 134 146 157 164 172 178 180 184 188 192 193 196 200 204 206 208 209 212 214 216 217 220 221 220 220 219 219 219 220 220 204 202 207 202 201 200 197 192 187 182 178
149 141 130 129 140 152 166 181 186 192 197 201 205 207 209 213 218 222 222 223 228 230 228 228 231 232 231 230 230 230 230 223 213 215 214 213 211 210 207 202 197 192 188
167 162 147 143 141 144 171 181 184 193 203 209 213 220 217 213 224 235 240 239 240 242 240 236 236 237 235 233 236 236 233 226 221 224 224 223 220 217 214 209 204 200 196
166 169 166 159 145 145 160 171 177 185 201 217 220 224 222 217 225 238 247 253 255 254 251 247 245 240 234 228 230 234 233 231 229 230 231 229 227 224 220 215 209 206 203
156 166 165 161 155 154 173 201 186 191 214 226 227 225 220 219 221 227 236 244 251 254 253 252 249 246 240 236 233 235 237 237 235 232 233 235 233 230 227 222 215 210 207
157 158 155 158 166 164 164 207 191 207 248 259 251 239 229 228 234 234 243 251 255 256 252 251 253 252 247 239 238 241 242 238 239 236 237 240 237 235 232 227 222 216 210
150 143 141 150 160 153 150 147 161 175 217 246 247 249 244 237 235 237 242 247 252 255 259 254 250 249 249 243 239 239 243 245 242 239 237 241 242 237 235 231 225 219 215
129 129 135 137 133 135 138 146 138 141 162 228 266 291 264 245 242 236 246 256 259 260 263 260 259 255 255 248 242 239 242 244 241 240 238 236 238 240 238 232 226 220 217
114 117 121 131 125 124 119 119 101 96 126 167 161 77 61 72 113 141 277 279 284 282 276 269 265 265 258 255 249 243 241 240 240 240 239 235 232 236 239 235 228 221 218
112 116 112 114 119 118 114 110 107 109 112 136 141 141 131 46 43 195 261 284 300 302 287 282 270 257 262 261 258 252 243 240 240 240 236 234 231 229 231 235 232 225 222
107 112 112 112 115 117 112 102 93 85 69 58 41 305 74 5 13 214 250 276 291 297 297 289 282 272 265 266 270 265 251 242 237 235 236 236 231 230 229 231 231 228 225
117 119 123 128 135 133 123 126 129 141 184 334 321 330 336 331 331 295 275 278 280 276 280 289 287 289 281 270 271 273 262 244 237 233 231 232 232 230 226 225 224 224 223
148 146 147 155 160 157 151 150 152 149 178 217 304 329 324 324 317 300 277 276 273 274 284 282 273 285 283 269 253 274 287 278 243 234 226 227 231 227 226 225 222 219 218
184 187 179 180 171 162 142 108 83 61 32 357 318 304 304 311 312 296 281 269 263 248 261 266 253 255 277 274 235 240 257 269 295 262 230 225 224 223 227 222 220 219 218
216 208 200 190 172 142 126 133 151 169 218 243 258 281 299 305 305 303 291 275 265 252 253 260 252 246 255 278 276 244 245 254 269 296 279 230 225 227 230 226 220 216 215
220 214 210 189 229 245 156 174 190 237 244 268 277 287 295 302 303 302 296 285 276 264 257 256 255 246 241 252 265 264 256 250 240 251 276 274 245 236 232 225 219 211 210
212 202 194 196 246 256 235 223 225 251 266 280 284 289 293 298 300 297 293 282 274 266 260 258 253 247 242 249 255 255 255 257 250 243 254 272 271 262 241 222 217 213 208
Height
1507 1511 1514 1517 1521 1524 1526 1528 1530 1532 1534 1536 1538 1540 1541 1542 1544 1545 1546 1547 1548 1549 1550 1551 1552 1553 1554 1554 1555 1555 1556 1557 1557 1558 1559 1559 1560 1561 1562 1563 1564 1566 1567
1505 1510 1515 1518 1521 1524 1527 1529 1532 1534 1535 1537 1539 1540 1542 1543 1545 1546 1547 1548 1549 1550 1551 1552 1553 1554 1555 1555 1556 1556 1557 1558 1558 1559 1560 1561 1562 1563 1564 1565 1566 1568 1569
1506 1511 1515 1519 1522 1525 1528 1531 1533 1535 1537 1538 1540 1542 1543 1544 1546 1547 1548 1549 1551 1552 1553 1554 1554 1555 1556 1556 1557 1558 1558 1559 1560 1561 1562 1563 1564 1565 1566 1567 1568 1570 1571
1508 1512 1516 1520 1524 1527 1529 1532 1534 1536 1538 1540 1541 1543 1544 1545 1547 1548 1549 1550 1552 1553 1554 1555 1555 1556 1557 1557 1558 1559 1560 1561 1562 1563 1564 1565 1566 1567 1568 1569 1570 1572 1573
1509 1514 1518 1521 1525 1528 1531 1533 1535 1537 1539 1541 1542 1544 1545 1546 1548 1549 1550 1551 1552 1554 1555 1556 1556 1557 1558 1559 1559 1560 1561 1562 1563 1564 1565 1566 1567 1569 1570 1571 1572 1573 1575
1510 1515 1519 1523 1526 1529 1532 1534 1536 1538 1540 1541 1543 1544 1546 1547 1549 1550 1551 1552 1553 1554 1555 1556 1557 1558 1559 1560 1560 1561 1562 1563 1564 1565 1566 1568 1569 1570 1571 1572 1574 1575 1576
1511 1516 1520 1523 1527 1530 1533 1535 1537 1539 1541 1542 1544 1545 1546 1548 1549 1550 1552 1553 1554 1555 1556 1557 1558 1559 1559 1560 1561 1562 1563 1564 1565 1566 1567 1568 1570 1571 1572 1573 1575 1576 1578
1513 1517 1521 1524 1528 1531 1534 1536 1538 1540 1542 1543 1544 1546 1547 1548 1549 1551 1552 1553 1554 1555 1556 1557 1558 1559 1560 1561 1562 1563 1564 1565 1566 1567 1568 1569 1570 1571 1573 1574 1575 1577 1578
1515 1518 1522 1525 1529 1532 1535 1537 1539 1541 1542 1544 1545 1546 1547 1548 1550 1551 1552 1553 1554 1555 1556 1557 1558 1559 1560 1561 1562 1563 1564 1565 1566 1567 1568 1569 1570 1571 1573 1574 1576 1577 1579
1516 1520 1523 1526 1529 1532 1535 1537 1539 1541 1543 1544 1545 1546 1547 1548 1549 1550 1551 1552 1553 1554 1555 1556 1558 1559 1559 1560 1561 1562 1563 1564 1565 1567 1568 1569 1570 1571 1572 1574 1575 1577 1578
1517 1521 1524 1527 1530 1533 1535 1537 1539 1541 1542 1544 1544 1545 1547 1548 1549 1550 1550 1551 1552 1553 1554 1555 1556 1557 1558 1559 1560 1561 1562 1563 1564 1565 1567 1568 1569 1570 1571 1573 1574 1576 1578
1518 1521 1524 1527 1530 1533 1535 1537 1539 1540 1542 1543 1544 1544 1545 1546 1547 1548 1549 1550 1551 1551 1552 1553 1554 1555 1556 1557 1558 1559 1559 1560 1562 1563 1564 1566 1567 1569 1570 1571 1573 1575 1577
1519 1522 1525 1528 1530 1533 1535 1537 1538 1539 1541 1542 1543 1543 1544 1545 1546 1546 1547 1548 1548 1549 1550 1551 1552 1552 1553 1554 1555 1556 1557 1558 1559 1560 1561 1563 1565 1566 1568 1569 1571 1573 1575
1520 1523 1525 1528 1530 1532 1535 1536 1537 1539 1540 1541 1541 1541 1542 1543 1543 1544 1545 1545 1546 1547 1547 1548 1548 1549 1549 1550 1551 1552 1553 1554 1555 1556 1558 1560 1561 1563 1565 1567 1569 1570 1573
1520 1523 1525 1527 1529 1531 1534 1536 1537 1538 1539 1539 1539 1539 1540 1541 1541 1541 1542 1543 1543 1543 1544 1544 1544 1545 1545 1546 1547 1547 1548 1550 1551 1552 1553 1555 1557 1559 1561 1563 1565 1567 1569
1521 1523 1524 1527 1528 1530 1533 1534 1535 1536 1537 1538 1538 1538 1538 1538 1538 1538 1539 1539 1539 1539 1540 1539 1540 1540 1540 1541 1541 1542 1543 1544 1545 1546 1548 1549 1551 1554 1556 1558 1561 1563 1566
1520 1522 1524 1527 1528 1529 1530 1532 1532 1533 1535 1535 1536 1535 1535 1535 1535 1536 1536 1536 1535 1535 1535 1535 1535 1535 1535 1535 1535 1536 1537 1538 1539 1541 1542 1544 1546 1548 1550 1553 1556 1558 1561
1520 1522 1524 1526 1527 1528 1529 1530 1531 1531 1533 1534 1534 1533 1533 1533 1532 1533 1533 1533 1532 1531 1531 1530 1530 1530 1529 1529 1529 1530 1530 1531 1533 1535 1536 1538 1539 1542 1544 1547 1550 1553 1556
1521 1522 1523 1525 1527 1528 1528 1529 1530 1530 1532 1532 1532 1531 1531 1530 1530 1530 1530 1529 1528 1527 1527 1526 1525 1525 1524 1523 1523 1523 1524 1524 1526 1528 1529 1531 1533 1535 1538 1541 1544 1547 1550
1522 1523 1524 1525 1526 1527 1528 1529 1530 1531 1531 1531 1530 1530 1529 1528 1528 1528 1527 1526 1525 1524 1523 1522 1521 1520 1519 1518 1517 1517 1517 1518 1519 1520 1522 1524 1526 1529 1532 1535 1538 1541 1544
1523 1524 1524 1525 1526 1527 1528 1529 1529 1530 1530 1529 1529 1528 1527 1527 1526 1525 1524 1523 1522 1521 1519 1518 1517 1516 1515 1514 1513 1511 1511 1512 1512 1512 1514 1516 1519 1522 1525 1528 1531 1534 1537
1523 1524 1525 1526 1527 1527 1528 1528 1529 1529 1528 1528 1527 1526 1525 1524 1523 1522 1521 1520 1518 1517 1516 1515 1514 1512 1511 1511 1509 1508 1506 1507 1505 1506 1507 1509 1511 1515 1518 1521 1524 1528 1531
1524 1524 1525 1526 1527 1527 1527 1528 1527 1527 1526 1526 1525 1524 1523 1522 1520 1519 1517 1516 1515 1514 1513 1512 1511 1509 1508 1507 1506 1506 1505 1502 1501 1501 1501 1503 1505 1509 1511 1514 1517 1521 1525
1524 1525 1525 1526 1526 1526 1526 1526 1526 1525 1524 1523 1522 1521 1520 1518 1517 1515 1514 1512 1511 1510 1509 1508 1507 1506 1505 1504 1503 1502 1502 1501 1501 1498 1497 1498 1500 1502 1505 1508 1511 1515 1518
1524 1524 1525 1525 1525 1525 1525 1524 1523 1522 1521 1519 1518 1517 1516 1514 1513 1511 1510 1509 1507 1506 1505 1505 1504 1503 1502 1501 1500 1499 1498 1497 1497 1496 1494 1494 1496 1497 1499 1502 1505 1509 1513
1523 1523 1523 1523 1523 1523 1522 1521 1520 1518 1517 1515 1514 1512 1511 1509 1508 1507 1505 1504 1503 1502 1501 1500 1500 1499 1498 1497 1496 1495 1495 1494 1493 1493 1492 1491 1491 1493 1494 1496 1499 1503 1507